Temperature
9 9 9 9 9 10 10 10 10 10 10 10 10 10 10 10 10 10 10 10 10 10 10 10 10 10 10 10 10 10 10 10 10 10 10 10 10 10 10 10 10 10 10
8 8 8 9 9 9 9 9 9 9 10 10 10 10 10 10 10 10 10 10 10 10 10 10 10 10 10 10 10 10 10 10 10 10 10 10 10 10 10 10 10 10 10
7 8 8 8 8 8 9 9 9 9 9 9 9 9 9 9 9 9 9 10 10 10 10 10 10 10 10 10 10 10 10 9 9 9 9 9 9 10 10 10 10 10 10
7 7 7 7 8 8 8 8 8 9 9 9 9 9 9 9 9 9 9 9 9 9 9 9 9 9 9 9 9 9 9 9 9 9 9 9 9 9 9 9 9 9 9
6 6 7 7 7 7 7 8 8 8 8 8 8 8 8 8 8 9 9 9 9 9 9 9 9 9 9 9 9 9 9 9 9 9 9 9 9 9 9 9 9 9 9
5 5 6 6 6 7 7 7 7 7 8 8 8 8 8 8 8 8 8 8 8 8 8 8 8 8 8 8 8 8 8 8 8 8 8 9 9 9 9 9 9 9 9
4 5 5 5 6 6 6 7 7 7 7 7 7 7 7 7 8 8 8 8 8 8 8 8 8 8 8 8 8 8 8 8 8 8 8 8 8 8 8 8 9 9 9
4 4 4 5 5 5 6 6 6 6 6 7 7 6 6 7 7 7 7 7 7 7 7 7 7 7 7 7 7 7 8 8 8 8 8 8 8 8 8 8 8 8 8
3 4 4 4 5 5 5 5 6 5 6 6 6 6 6 6 6 6 7 7 7 7 7 7 7 7 7 7 7 7 7 7 7 7 7 7 7 7 8 8 8 8 8
3 3 3 4 4 4 4 5 5 5 5 5 5 6 6 5 5 5 6 6 6 6 6 6 6 7 7 7 7 7 7 7 7 7 7 7 7 7 7 7 7 7 7
2 3 3 3 3 4 4 4 4 4 4 5 5 5 5 5 5 5 5 5 6 6 6 6 6 6 6 6 6 6 6 6 6 6 6 6 7 7 7 7 7 7 7
2 2 2 2 3 3 3 3 4 4 4 4 4 5 5 5 5 5 5 5 5 5 5 5 6 6 6 6 6 6 6 6 6 6 6 6 6 6 6 6 6 7 7
1 2 2 2 2 2 2 3 3 3 3 4 4 4 4 4 4 4 4 4 4 4 5 5 5 5 5 5 5 5 6 6 6 6 6 6 6 6 6 6 6 6 6
1 1 1 1 2 2 2 2 2 3 3 3 3 4 4 4 4 4 4 4 3 4 4 4 5 5 5 5 5 5 5 5 5 5 5 5 5 5 5 6 6 5 6
0 0 1 1 1 1 1 1 2 2 2 2 3 3 3 3 3 3 4 3 3 2 3 4 4 4 4 4 4 4 5 5 5 5 5 5 5 5 5 5 5 5 5
-0 -0 0 0 1 1 1 1 1 2 2 2 2 2 3 3 3 3 3 3 3 2 2 3 4 4 4 4 4 4 4 4 4 4 4 4 4 5 4 4 4 5 5
-1 -1 -1 -0 0 0 1 1 1 1 1 2 2 2 2 2 2 2 2 2 2 2 2 3 3 3 3 4 4 3 4 4 4 4 4 4 4 4 4 4 4 4 4
-1 -1 -1 -1 -1 -0 -0 0 0 1 1 1 1 1 1 1 1 2 2 2 2 2 2 2 2 3 3 3 3 3 3 3 3 3 3 3 3 3 3 3 3 3 3
-2 -1 -1 -1 -1 -1 -1 -0 -0 0 0 0 0 1 1 1 1 1 1 1 1 1 1 2 2 2 2 2 2 2 2 3 3 3 3 3 3 3 3 3 2 2 3
-2 -2 -2 -2 -1 -1 -1 -1 -1 -0 -0 -0 -0 -0 -0 0 0 0 0 0 0 0 1 1 1 2 2 2 2 2 2 2 2 2 2 2 2 2 2 2 2 2 2
-2 -2 -2 -2 -2 -2 -1 -1 -1 -1 -1 -1 -1 -1 -0 -0 -0 -0 -0 -0 -0 -0 0 0 1 1 1 1 1 1 1 1 2 2 2 2 2 1 1 1 1 1 1
-2 -2 -2 -2 -2 -2 -2 -2 -2 -2 -2 -1 -1 -1 -1 -1 -1 -1 -1 -1 -1 -1 -1 -0 -0 0 0 0 0 0 0 0 0 1 1 1 1 1 1 1 1 1 1
-2 -2 -2 -2 -2 -2 -2 -2 -2 -2 -2 -2 -2 -2 -1 -1 -1 -1 -1 -1 -1 -1 -1 -1 -1 -0 -0 -0 -0 -0 -1 -1 -0 -0 -0 -0 0 0 0 0 0 0 0
-3 -3 -3 -3 -3 -2 -2 -2 -3 -3 -3 -2 -2 -2 -2 -2 -2 -2 -2 -2 -2 -2 -1 -1 -1 -1 -1 -1 -1 -1 -1 -1 -1 -1 -1 -1 -1 -1 -0 -0 -0 -0 -0
-3 -3 -3 -3 -3 -3 -3 -3 -3 -3 -3 -3 -3 -3 -3 -3 -3 -3 -3 -3 -3 -2 -2 -2 -2 -2 -2 -2 -2 -2 -2 -2 -2 -2 -2 -2 -2 -2 -1 -1 -1 -1 -1
-4 -4 -4 -4 -4 -4 -4 -4 -3 -3 -3 -3 -3 -3 -3 -3 -3 -3 -3 -3 -3 -3 -3 -3 -3 -3 -2 -2 -2 -2 -2 -3 -3 -3 -2 -3 -3 -3 -2 -2 -1 -1 -1
Wind_Speed
2 3 3 4 4 4 4 4 4 4 5 6 6 6 5 5 5 5 4 4 4 5 7 8 8 8 8 8 8 8 8 8 8 8 7 7 7 7 7 7 7 6 6
2 2 2 3 3 3 3 3 3 3 3 4 4 4 4 5 5 5 4 4 5 5 6 7 8 8 8 8 8 8 8 7 6 6 6 6 5 5 5 5 6 5 5
2 2 1 2 2 2 2 4 4 4 3 3 3 3 4 4 5 5 4 4 4 4 5 6 7 7 7 8 7 7 7 6 6 5 5 5 4 4 3 4 4 4 4
1 2 1 1 2 2 3 3 2 2 2 2 2 2 3 3 4 4 4 4 4 4 4 5 6 6 6 7 7 6 6 6 5 5 4 4 4 3 2 3 3 2 3
1 2 1 1 2 2 2 2 2 2 3 2 2 2 2 3 3 4 4 4 4 4 4 4 5 5 5 5 5 5 6 5 5 4 3 3 2 2 2 2 1 1 1
0 1 1 1 2 2 1 2 2 1 3 3 3 2 1 2 2 3 3 3 4 4 4 5 5 4 4 4 4 4 4 4 4 3 3 2 2 1 1 1 0 1 1
1 1 1 1 1 1 2 2 2 2 2 3 3 2 1 2 2 2 2 3 3 3 4 4 4 4 3 3 2 3 3 2 2 2 2 1 1 0 0 0 1 1 1
1 1 1 1 1 1 2 2 3 2 1 2 3 4 1 0 0 1 1 2 2 3 3 4 4 4 3 2 2 2 2 1 1 1 1 1 1 1 1 2 2 2 3
2 2 2 2 2 2 3 3 3 3 3 2 2 3 3 3 1 0 1 2 2 2 2 3 3 3 3 3 3 3 3 2 2 2 1 0 1 2 2 2 2 3 4
3 3 2 2 2 2 3 4 4 3 4 4 1 0 1 3 3 1 1 1 1 2 2 2 2 3 3 3 3 3 4 3 3 3 2 1 2 2 2 3 3 4 3
3 3 3 3 3 2 3 4 4 4 3 4 3 2 1 1 1 3 2 2 2 2 2 2 2 2 3 4 4 3 4 4 4 4 4 3 3 3 3 3 4 4 4
3 3 3 4 3 3 4 5 5 5 4 4 3 3 3 3 3 3 3 3 3 2 2 2 3 2 3 3 4 4 3 3 4 4 4 5 4 4 4 3 4 5 4
3 4 4 4 4 4 5 5 5 4 5 4 4 4 4 3 2 2 3 3 2 1 1 2 2 3 3 3 4 4 4 4 3 4 5 5 5 4 4 4 4 5 5
4 4 5 4 4 5 5 5 4 5 4 5 5 5 4 3 3 3 3 3 2 1 2 2 2 3 3 4 4 5 4 5 5 4 5 5 4 4 3 4 4 4 5
4 4 5 5 5 5 6 5 5 5 5 5 5 5 4 3 3 3 3 4 4 4 4 3 2 2 3 3 4 4 4 5 5 5 4 3 4 4 4 4 4 4 4
5 4 5 5 5 6 6 6 5 5 6 6 5 6 5 4 3 3 4 3 3 4 4 3 2 2 2 2 3 4 5 6 6 6 5 4 4 5 5 5 5 5 5
5 5 5 5 6 7 7 6 7 6 7 6 6 7 6 5 5 4 4 4 3 3 5 3 2 2 3 3 3 3 4 5 6 7 6 5 4 5 5 6 6 5 5
6 6 6 6 7 7 7 8 8 8 8 8 8 8 7 6 6 5 5 4 4 4 4 5 3 2 3 4 3 3 3 4 5 6 6 6 6 5 5 6 6 6 6
6 6 6 7 7 8 8 8 9 8 9 9 9 9 9 8 8 6 6 5 4 4 4 4 4 2 2 3 2 2 2 3 4 5 6 6 6 6 6 6 7 7 6
6 7 7 7 8 8 8 9 9 9 9 8 9 9 9 9 9 8 7 7 5 5 4 4 3 3 2 3 3 3 2 2 2 3 5 5 6 6 7 6 7 7 7
6 6 7 7 7 7 8 10 10 10 9 8 8 9 9 10 11 9 7 7 6 6 5 4 4 3 3 4 4 3 3 2 2 2 2 3 4 4 6 6 7 8 8
5 5 6 7 7 7 10 12 11 9 9 9 9 9 9 10 11 11 11 10 9 8 7 6 5 6 5 5 4 4 3 2 3 2 2 3 3 3 5 6 8 9 9
4 5 5 5 6 7 10 11 12 8 8 9 9 8 8 8 10 8 9 10 9 10 9 7 7 7 6 6 6 5 5 4 4 3 2 4 3 4 5 7 9 10 9
3 3 4 4 4 6 8 9 10 7 7 8 9 9 9 8 9 9 8 7 7 7 8 7 7 7 6 6 6 5 5 3 2 2 2 3 3 3 5 7 9 9 9
3 3 3 3 3 5 7 7 8 5 6 7 7 7 8 8 10 11 9 8 7 6 7 8 8 8 7 7 6 3 3 3 3 3 2 2 2 3 3 4 7 8 8
3 3 3 3 3 3 5 6 5 4 5 5 5 6 8 9 10 11 9 9 8 7 5 5 5 6 5 6 7 5 5 4 2 2 3 3 2 1 2 3 4 6 7
Wind_Direction
41 41 48 50 44 51 68 77 85 92 96 98 100 100 93 88 89 88 91 99 112 134 139 141 138 131 128 125 121 116 113 107 102 99 95 96 91 85 82 87 87 89 90
60 60 57 50 44 49 64 86 101 103 107 107 105 101 101 98 97 95 92 94 102 121 131 135 138 134 130 125 119 114 113 109 106 104 98 96 94 91 84 83 82 84 84
69 84 78 52 38 50 79 84 93 99 105 102 112 104 102 101 100 101 100 100 105 112 121 126 128 129 129 127 123 118 111 105 102 100 100 95 93 96 95 87 83 80 75
56 81 89 63 41 72 96 100 105 118 118 119 126 114 100 101 103 105 103 103 110 112 121 125 122 123 121 121 121 119 115 110 104 99 99 97 91 89 91 91 85 83 71
53 82 100 77 77 84 104 124 116 140 143 139 144 128 111 107 110 109 103 106 115 119 123 135 127 123 121 119 119 117 114 110 103 98 101 103 106 96 88 75 71 98 92
76 88 107 81 102 116 136 133 137 133 153 154 139 116 110 114 113 110 115 112 117 123 127 128 124 127 128 128 128 126 120 112 105 97 93 96 95 108 109 138 74 341 275
174 131 144 124 130 171 180 155 146 135 149 143 124 112 65 76 106 112 104 113 110 118 126 128 126 128 133 140 144 146 142 134 118 98 84 88 85 167 223 350 254 256 293
200 195 165 170 167 176 177 161 142 158 166 140 141 146 136 113 58 136 133 138 130 113 109 121 122 129 137 147 163 159 167 181 182 144 89 63 45 25 275 275 299 257 259
204 202 193 177 184 185 194 184 167 166 178 176 151 151 159 191 186 217 167 152 143 145 123 124 130 144 155 157 169 180 185 199 210 215 208 44 5 11 353 318 307 269 255
208 201 199 191 194 188 197 193 180 182 174 179 188 169 156 150 160 179 224 198 176 176 173 141 153 165 174 170 177 189 193 202 217 231 238 265 302 321 340 331 315 311 301
217 205 203 197 204 197 200 189 186 189 191 186 181 175 135 119 133 164 201 208 216 217 208 193 177 178 187 186 182 189 194 207 223 235 248 262 276 296 311 326 322 311 313
223 213 211 205 210 207 205 197 190 192 197 197 188 180 173 171 176 170 189 196 211 228 233 209 189 182 189 194 192 190 193 209 226 238 251 262 267 279 296 308 325 313 301
233 220 216 213 217 216 206 194 192 200 198 199 202 197 195 196 188 180 180 199 226 249 232 229 209 199 198 198 200 196 204 210 223 239 254 265 267 267 282 298 311 318 304
233 216 211 218 225 215 206 198 199 206 200 206 216 207 201 203 200 188 182 180 207 245 228 234 225 207 207 206 208 201 213 217 225 241 255 255 260 260 270 287 295 303 312
231 214 211 217 226 216 204 202 209 210 204 211 217 210 208 207 204 206 191 188 190 210 222 221 216 215 220 217 214 209 227 229 231 239 241 242 248 255 260 270 279 287 297
231 222 221 221 222 215 206 205 213 212 207 215 213 205 209 207 205 207 198 203 208 207 225 221 222 230 226 238 237 232 234 235 232 236 236 242 250 256 261 260 267 275 283
233 230 227 227 225 221 211 213 217 212 210 214 211 204 210 204 206 208 201 200 211 210 228 249 233 227 211 216 255 252 240 236 238 234 234 239 250 255 255 262 260 264 269
233 234 231 232 230 221 215 215 218 213 211 212 209 204 209 205 210 210 204 208 212 213 216 236 247 219 225 212 216 235 257 242 240 239 238 241 244 253 256 258 260 262 262
237 236 233 234 232 226 220 221 221 219 216 214 209 206 207 201 212 212 209 211 215 219 214 220 240 225 231 213 205 235 255 259 250 246 243 241 245 254 264 262 256 256 258
238 237 237 237 235 230 225 224 222 220 219 217 213 209 207 205 210 211 212 213 212 214 215 215 235 222 217 210 198 214 244 237 256 263 245 245 250 255 260 266 258 254 256
242 240 239 242 239 232 226 223 222 220 217 218 217 213 211 211 214 214 215 209 204 206 208 216 227 219 214 206 212 211 240 250 262 251 242 256 256 259 263 266 262 255 257
248 243 243 244 242 242 238 233 227 220 216 216 219 216 216 216 220 223 226 222 212 205 207 209 222 219 215 212 209 212 221 240 249 222 228 259 246 248 263 265 269 262 259
257 253 248 242 245 249 245 238 233 223 216 215 217 217 220 218 217 212 223 228 229 229 221 208 216 219 210 205 199 206 215 226 244 231 225 248 241 249 262 265 275 269 262
276 269 263 253 254 263 259 249 239 226 219 220 217 213 213 214 212 204 203 212 221 228 230 224 217 219 215 211 208 210 213 221 277 254 230 238 241 254 276 267 268 262 258
295 283 273 266 263 280 279 262 241 214 215 219 221 217 214 212 216 210 206 210 218 229 235 230 231 232 224 218 211 185 186 207 255 253 215 213 238 269 265 257 263 263 263
308 300 300 293 277 279 284 277 245 214 217 218 219 219 222 218 216 213 207 204 213 219 211 217 231 237 226 218 214 208 199 208 231 243 213 202 222 238 261 249 253 262 261
Height
1515 1516 1518 1519 1521 1522 1524 1526 1527 1529 1531 1532 1534 1535 1537 1539 1541 1543 1544 1546 1547 1549 1550 1551 1552 1553 1554 1555 1556 1557 1558 1559 1559 1560 1560 1561 1561 1561 1562 1562 1562 1563 1563
1513 1514 1515 1516 1518 1520 1522 1523 1525 1526 1528 1530 1531 1533 1535 1537 1539 1541 1543 1544 1546 1547 1549 1550 1551 1552 1553 1554 1555 1556 1557 1558 1558 1559 1559 1560 1560 1561 1561 1562 1562 1562 1563
1510 1511 1512 1514 1515 1517 1519 1520 1522 1524 1526 1527 1529 1531 1533 1535 1537 1539 1541 1542 1544 1545 1547 1548 1549 1550 1552 1553 1554 1555 1556 1557 1557 1558 1558 1559 1560 1560 1561 1561 1561 1562 1562
1507 1508 1509 1511 1513 1514 1516 1517 1519 1521 1523 1525 1527 1529 1530 1532 1535 1537 1539 1540 1542 1544 1545 1547 1548 1549 1551 1552 1553 1554 1555 1555 1556 1556 1557 1558 1558 1559 1560 1560 1560 1560 1561
1504 1505 1507 1508 1510 1511 1513 1514 1517 1519 1520 1522 1524 1526 1528 1529 1532 1534 1536 1538 1540 1542 1543 1545 1546 1548 1549 1550 1551 1552 1553 1554 1555 1555 1556 1556 1557 1557 1558 1558 1559 1559 1559
1501 1502 1504 1505 1507 1508 1510 1511 1513 1515 1517 1519 1521 1523 1526 1527 1530 1531 1533 1536 1537 1539 1541 1543 1544 1546 1547 1548 1549 1550 1551 1552 1553 1553 1554 1554 1555 1555 1556 1556 1557 1557 1557
1498 1499 1500 1502 1503 1505 1506 1508 1510 1512 1514 1516 1518 1520 1523 1525 1527 1529 1531 1533 1535 1537 1539 1540 1541 1543 1545 1546 1547 1548 1549 1550 1551 1551 1552 1552 1553 1553 1554 1554 1554 1555 1555
1494 1495 1497 1498 1500 1501 1503 1505 1506 1508 1510 1512 1514 1516 1519 1523 1524 1526 1528 1530 1532 1534 1536 1537 1539 1540 1542 1543 1545 1546 1547 1548 1548 1549 1549 1550 1550 1551 1551 1551 1552 1552 1552
1490 1492 1493 1495 1496 1498 1500 1501 1503 1504 1506 1509 1511 1513 1515 1517 1520 1522 1524 1526 1529 1531 1533 1534 1536 1537 1539 1540 1541 1543 1544 1545 1545 1546 1547 1547 1548 1548 1549 1549 1549 1549 1550
1486 1488 1489 1491 1492 1494 1496 1498 1499 1502 1503 1505 1507 1509 1512 1513 1516 1518 1521 1523 1525 1527 1529 1531 1532 1534 1535 1537 1538 1539 1541 1542 1543 1544 1544 1545 1545 1546 1546 1546 1546 1546 1546
1482 1484 1485 1487 1489 1490 1492 1494 1496 1498 1500 1501 1503 1505 1507 1510 1512 1514 1516 1519 1521 1524 1525 1527 1529 1530 1532 1533 1535 1536 1537 1538 1540 1540 1541 1542 1543 1543 1543 1543 1543 1543 1543
1477 1479 1481 1483 1485 1486 1488 1490 1492 1494 1496 1498 1500 1501 1503 1506 1508 1510 1512 1514 1516 1519 1521 1523 1524 1526 1528 1529 1531 1532 1533 1535 1536 1537 1538 1538 1539 1540 1540 1540 1540 1540 1539
1473 1475 1477 1478 1480 1482 1484 1486 1488 1490 1492 1494 1496 1498 1500 1503 1505 1507 1509 1511 1513 1514 1517 1519 1520 1522 1524 1525 1527 1528 1530 1531 1532 1533 1534 1535 1535 1536 1536 1536 1536 1536 1536
1469 1470 1472 1474 1476 1477 1479 1481 1483 1486 1488 1490 1492 1494 1496 1499 1501 1503 1505 1507 1509 1510 1512 1514 1516 1518 1520 1521 1522 1524 1525 1527 1528 1529 1530 1530 1531 1531 1532 1532 1532 1532 1532
1464 1466 1467 1469 1470 1472 1474 1477 1478 1481 1483 1486 1488 1490 1492 1494 1497 1499 1501 1503 1505 1506 1507 1509 1511 1513 1515 1517 1518 1520 1521 1522 1524 1525 1525 1526 1527 1527 1528 1528 1528 1528 1528
1459 1460 1462 1463 1465 1467 1469 1471 1473 1476 1479 1481 1483 1485 1487 1490 1492 1494 1496 1498 1500 1502 1502 1504 1506 1508 1510 1512 1514 1515 1517 1518 1520 1521 1521 1522 1523 1523 1524 1524 1524 1524 1524
1454 1455 1457 1458 1460 1462 1464 1466 1468 1470 1473 1475 1477 1480 1482 1485 1487 1489 1491 1493 1495 1497 1497 1499 1502 1504 1506 1507 1509 1511 1512 1514 1515 1516 1517 1518 1518 1519 1519 1519 1519 1519 1519
1449 1450 1452 1453 1455 1456 1458 1460 1462 1464 1467 1469 1471 1474 1477 1479 1482 1484 1486 1488 1490 1492 1494 1494 1496 1499 1500 1502 1504 1506 1507 1509 1510 1511 1512 1513 1513 1514 1514 1514 1515 1514 1514
1444 1445 1446 1448 1449 1451 1453 1454 1457 1458 1461 1463 1466 1468 1471 1473 1476 1478 1480 1483 1485 1487 1489 1490 1491 1493 1495 1497 1498 1500 1502 1503 1504 1506 1507 1508 1508 1509 1509 1509 1509 1509 1509
1439 1440 1441 1443 1444 1445 1447 1449 1451 1453 1455 1458 1460 1462 1465 1468 1470 1473 1475 1477 1479 1482 1483 1485 1486 1488 1490 1491 1493 1494 1495 1497 1498 1500 1501 1502 1503 1503 1504 1503 1504 1504 1504
1434 1435 1436 1437 1439 1440 1442 1443 1445 1447 1449 1451 1454 1456 1459 1462 1464 1467 1469 1471 1473 1475 1477 1479 1480 1482 1484 1486 1487 1488 1490 1491 1492 1494 1495 1496 1496 1497 1497 1498 1498 1498 1499
1429 1430 1431 1432 1433 1434 1435 1437 1439 1440 1442 1445 1447 1450 1453 1455 1458 1461 1463 1465 1467 1469 1471 1473 1474 1476 1477 1480 1482 1483 1484 1485 1486 1488 1489 1490 1491 1491 1491 1492 1493 1493 1494
1425 1426 1426 1427 1427 1428 1430 1431 1433 1435 1436 1438 1441 1444 1446 1449 1452 1454 1457 1459 1461 1463 1465 1467 1468 1470 1472 1474 1477 1478 1479 1480 1481 1482 1483 1483 1485 1485 1486 1487 1487 1488 1488
1420 1420 1421 1421 1422 1423 1424 1425 1426 1428 1430 1433 1435 1437 1440 1442 1445 1448 1450 1452 1454 1457 1459 1461 1463 1465 1468 1469 1471 1473 1474 1475 1477 1478 1479 1478 1478 1479 1480 1481 1482 1482 1483
1416 1416 1416 1416 1416 1417 1418 1419 1420 1422 1424 1427 1430 1432 1434 1436 1439 1441 1444 1446 1448 1451 1454 1456 1458 1460 1462 1464 1466 1467 1468 1470 1470 1471 1473 1473 1473 1474 1474 1475 1476 1476 1477
1412 1412 1412 1412 1412 1412 1413 1414 1415 1417 1419 1422 1424 1426 1428 1431 1433 1436 1438 1440 1442 1445 1448 1450 1452 1453 1455 1457 1459 1461 1462 1464 1464 1465 1467 1469 1468 1469 1468 1468 1470 1470 1471